Погода Karlovac

Погода Karlovac : погода сейчас, прогноз погоды и архив. Всё, что Вы хотите узнать о погоде Karlovac!

Поиск расширенной информации на нашем сайте:

Другие новости

Новости СМИ2

Главная страница сайта

Новости сайта

03.07.2017

Напоминаем, что на нашем специализированном сайте Метеоцентр.Азия вы можете получить высокодетализированные автоматические прогнозы погоды по пунктам России, СНГ и мира в авиационном формате (включающие направление и скорость ветра, видимость, явления погоды, количество и форму облачности, нижнюю и верхнюю границу облачности).


Погода Karlovac - сегодня

Время (UTC), дата Ветер
(°,м/с) 
Видим.   Явления Облачность Т
(°С)
Тd
(°С)
f(%) Тe
(°С)
Pmin
(гПа)
dP
(гПа)
Po
(мм)
O2
(г/м3)
Тmin Tmax R s Состояние
почвы
09 05.02.18 150 (ЮВ) 0200 м  туман  ?/?  
-0.4 -0.7 98 1026.5  0.5  759  306           
12 05.02.18 100 (В) 5000 м  дымка{туман}  10/10 300 м 
[St]
+0.7 +0 95 +1  1025.6  -0.8  759  305           
18 05.02.18 080 (В) 10 км    10/10 600 м 
[St]
+0.2 -1.1 91 +1  1024.3  758  305    +1.3    10  равномерный
мокрый или
старый снег
100% 
03 06.02.18 тихо ()   15000 м    10/10 600 м 
[St]
-0.4 -1.4 93 -0  1022.3  756  305           
06 06.02.18 170 (Ю) 15000 м    10/10 600 м 
[St]
-0.3 -1.6 91 1021.5  -0.7  756  305  -0.5      10  равномерный
мокрый или
старый снег
100% 
09 06.02.18 140 (ЮВ) 15000 м    10/10 600 м 
[St]
+0.5 -1.8 85 +1  1021.5  756  304           
18 06.02.18 080 (В) 5000 м  снег  10/8 300 м средняя 
[Frnb|As op]
-0.7 -1.2 96 1018.6  753  305    +1.3  13  равномерный
мокрый или
старый снег
100% 
06 07.02.18 250 (З) 4000 м  слаб. снег  10/8 300 м средняя 
[Frnb|As op]
-0.7 -1 98 1011.4  -1.2  748  302  -1.1    13  25  равномерный
мокрый или
старый снег
100% 
09 07.02.18 250 (З) 3000 м  снежные зёрна  10/8 300 м средняя 
[Frnb|As op]
+0.5 -0.8 91 +1  1011.2  0.2  748  301           
03 08.02.18 170 (Ю) 4000 м  снежные зёрна  10/8 300 м средняя 
[Frnb|As op]
+0.3 +0.1 99 +1  1012.5  749  301           
06 08.02.18 220 (ЮЗ) 5000 м  слаб. дождь со снегом  10/8 300 м средняя 
[Frnb|As op]
+0.6 +0.4 99 +1  1014.1  1.6  750  302  +0.2    19  неравномерный
мокрый или
старый снег
100% 
09 08.02.18 130 (ЮВ) 1000 м  в посл. час морось{снег}  10/8 600 м средняя 
[Sc|As trans]
+2.3 +1.4 94 +3  1016  752  300           
12 08.02.18 200 (Ю) 15000 м  {снег}  8/3 600 м средняя 
[Cu Sc|Ac und]
+5.4 +1.5 76 +6  1016  0.1  752  297      0.6     
18 08.02.18 тихо ()   15000 м  слаб. дождь  10/8 1000 м средняя 
[Cu Sc|As op]
+2.2 +1.7 96 +2  1018.1  753  301    +6.5  0.6  18  неравномерный
мокрый или
старый снег
100% 
03 09.02.18 040 (СВ) 0100 м  туман  ?/?  
+0.4 +0.2 99 +1  1019  754  303           
06 09.02.18 340 (С) 0200 м  туман  ?/?  
+0.6 +0.4 99 +1  1019.1  0.1  754  303  +0.3    0.0  17  неравномерный
мокрый или
старый снег
100% 
09 09.02.18 020 (С) 0300 м  туман  ?/?  
+1.4 +1.2 99 +2  1019.5  0.5  754  302           
12 09.02.18 030 (СВ) 5000 м  дымка{туман}  10/10 300 м 
[St]
+2.3 +0.6 88 +3  1018.3  -1.2  753  301      0.0     
18 09.02.18 220 (ЮЗ) 10 км    10/10 600 м 
[St]
+1.9 +0.7 92 +3  1016.7  752  301    +3.6  0.0  15  неравномерный
мокрый или
старый снег
100% 
09 22.02.18 360 (С) 0700 м  сильн. снег  10/3 300 м средняя 
[Frnb|As op]
-0.4 -0.9 96 -2  1013.7  1.2  750  303           
12 27.02.18 020 (С) 8000 м  слаб. снег  10/10 600 м 
[Frnb]
-6.7 -10.4 75 -10  1012.8  749  310      0.2     
12 26.03.18 300 (СЗ) 40000 м    4/4 600 м 
[Cu Sc]
+10.5 -1.2 44 +11  1011.7  -0.4  749  291           
03 07.04.18 130 (ЮВ) 50000 м    1/0 верхняя 
[Ci fib]
+1.6 +1.4 99 +2  1023.2  757  303           
06 25.04.18 190 (Ю) 50000 м    3/0 верхняя 
[Ci sp]
+13.7 +11.8 88 +19  1016.1  0.5  752  286  +9.1        сухая 
21 06.05.18 330 (СЗ) 35000 м  в посл. час дождь  8/4 1000 м средняя 
[Sc|Ac As]
+17.7 +15.6 88 +29  1017.6  753  282    +22     
Время (UTC), дата Ветер
(°,м/с) 
Видим.   Явления Облачность Т
(°С)
Тd
(°С)
f(%) Тe
(°С)
Pmin
(гПа)
dP
(гПа)
Po
(мм)
O2
(г/м3)
Тmin Tmax R s Состояние
почвы

Для получения пояснительной информации подведите курсор к названию столбца.

ПОГОДА Karlovac - архив

Всё, что Вы хотите узнать о погоде Karlovac - удобно и подробно!

Выберите нужную дату (начиная с 1 января 2015* года) и нажмите кнопку "Найти".
Будут отображены архивные сводки погоды по пункту Karlovac, начиная с указанной даты.


Отображать данные в формате CSV (для использования в таблицах Excel)


Внимание! Наш архив погоды предназначен исключительно для личного некоммерческого использования в познавательных целях. Если Вам необходимы официальные справки о состоянии погоды (для производственных, юридических, коммерческих и т.п. целей), обращайтесь в органы Росгидромета.

*Примечание: данная дата относится к архиву по метеостанциям СССР (Россия, СНГ, Балтия).
Архив по метеостанциям Зарубежной Европы и Азии (кроме Китая) хранится 10 дней, по другим регионам земного шара (Китай, Африка, Америка, Австралия, Океания) - 1 день.

Karlovac - район местоположения метеостанции


Название, широта, долгота, высота метеостанции:
Karlovac 45.5°ш. 15.6°д. 117 м над ур. моря [Croatia]

Дополнительная информация

В oтличие oт бoльшинства пoгoдных сайтoв мы публикуем пoдрoбную метеoинфoрмацию в детальнoм прoфессиoнальнoм фoрмате.

Характеристики температуры и влажнoсти вoздуха измеряются на высoте 2 м в тени вдали oт зданий и деревьев.
Скoрoсть ветра измеряется на высoте 10 м (на урoвне рoста челoвека скoрoсть ветра ниже в 1.5-2 раза). Если метеoстанция нахoдится в гoрoде или в лесу, тo скoрoсть ветра занижена на 2-4 м/с пo сравнению с oткрытым местoм. Скoрoсть ветра над акватoриями крупных рек и oзёр, а также на вершинах хoлмoв на 2-5 м/с выше, чем в oбычных услoвиях.
Атмoсфернoе давление в разных тoчках местнoсти мoжет значительнo oтличаться oт давления на метеoстанции, в зависимoсти oт услoвий рельефа (при пoдъёме на 10 м давление пoнижается примернo на 1 мм рт.ст.).